TimeEST,TemperatureF,Dew PointF,Humidity,Sea Level PressureIn,VisibilityMPH,Wind Direction,Wind SpeedMPH,Gust SpeedMPH,PrecipitationIn,Events,Conditions,WindDirDegrees,DateUTC
12:51 AM,36.0,30.9,82,30.04,10.0,NNW,5.8,-,N/A,,Overcast,340,2012-12-20 05:51:00
1:51 AM,34.0,30.0,85,30.07,10.0,NNW,4.6,-,N/A,,Overcast,340,2012-12-20 06:51:00
2:51 AM,35.1,30.9,85,30.09,10.0,North,4.6,-,N/A,,Overcast,360,2012-12-20 07:51:00
3:02 AM,35.6,30.2,81,30.08,10.0,North,4.6,-,N/A,,Overcast,360,2012-12-20 08:02:00
3:51 AM,35.1,30.9,85,30.10,10.0,North,4.6,-,N/A,,Overcast,10,2012-12-20 08:51:00
4:23 AM,35.6,30.2,81,30.10,10.0,NNE,5.8,-,N/A,,Overcast,20,2012-12-20 09:23:00
4:51 AM,34.0,30.9,89,30.11,10.0,NNE,5.8,-,N/A,,Overcast,20,2012-12-20 09:51:00
5:51 AM,34.0,30.9,89,30.13,8.0,NNE,4.6,-,0.00,Snow,Light Snow,20,2012-12-20 10:51:00
6:51 AM,34.0,30.0,85,30.16,10.0,NNE,4.6,-,0.00,,Overcast,20,2012-12-20 11:51:00
7:51 AM,34.0,30.9,89,30.19,10.0,Calm,Calm,-,N/A,,Mostly Cloudy,0,2012-12-20 12:51:00
8:51 AM,36.0,30.0,79,30.19,10.0,NE,9.2,-,N/A,,Mostly Cloudy,50,2012-12-20 13:51:00
9:51 AM,37.0,28.9,73,30.23,10.0,NNE,11.5,-,N/A,,Mostly Cloudy,20,2012-12-20 14:51:00
10:51 AM,37.9,30.0,73,30.19,10.0,NE,8.1,-,N/A,,Mostly Cloudy,50,2012-12-20 15:51:00
11:51 AM,39.9,28.9,65,30.20,10.0,Variable,3.5,-,N/A,,Mostly Cloudy,0,2012-12-20 16:51:00
12:51 PM,39.9,28.0,63,30.18,10.0,Calm,Calm,-,N/A,,Mostly Cloudy,0,2012-12-20 17:51:00
1:51 PM,39.9,28.0,63,30.16,10.0,ENE,10.4,-,N/A,,Mostly Cloudy,70,2012-12-20 18:51:00
2:51 PM,37.0,28.0,70,30.16,10.0,East,6.9,-,N/A,,Mostly Cloudy,100,2012-12-20 19:51:00
3:51 PM,35.6,28.4,75,30.15,10.0,East,5.8,-,N/A,,Scattered Clouds,100,2012-12-20 20:51:00
4:51 PM,34.0,28.0,79,30.17,10.0,East,5.8,-,N/A,,Partly Cloudy,100,2012-12-20 21:51:00
5:51 PM,32.0,28.0,85,30.17,10.0,Calm,Calm,-,N/A,,Scattered Clouds,0,2012-12-20 22:51:00
6:51 PM,30.9,28.0,89,30.16,10.0,Calm,Calm,-,N/A,,Partly Cloudy,0,2012-12-20 23:51:00
7:51 PM,32.0,28.0,85,30.17,10.0,North,3.5,-,N/A,,Mostly Cloudy,350,2012-12-21 00:51:00
8:51 PM,35.1,30.0,82,30.15,10.0,NNE,6.9,-,N/A,,Mostly Cloudy,20,2012-12-21 01:51:00
9:51 PM,34.0,28.9,82,30.11,9.0,NNE,6.9,-,N/A,,Overcast,30,2012-12-21 02:51:00
10:13 PM,33.8,30.2,87,30.12,2.5,NNW,3.5,-,0.00,Snow,Light Snow,340,2012-12-21 03:13:00
10:51 PM,33.1,30.0,89,30.11,2.5,NNE,4.6,-,0.01,Snow,Light Snow,20,2012-12-21 03:51:00
11:51 PM,32.0,30.0,92,30.09,2.5,NNE,4.6,-,0.02,Snow,Light Snow,30,2012-12-21 04:51:00